Погода в Ольшанке

Россия / Саратовская область     51°09′55″N   43°40′17″E
темп.,
°C
ветер,
м/с
пор.,
м/с
влажн.,
%
обл.,
%
осадки,
мм/ч
давл.,
гПа
погр.,
м
2 июля, сб
сб201:00+9ссз71182100 0.0 1012802
04:00+9сз51094100 0.6 1010592
07:00+12ссв61190100 0.2 1010836
10:00+13с71188100 0.9 10111031
13:00+13с71389100 5.1 1011780
16:00+19св8136375 7.4 10101574
19:00+18с1016765 1.2 10091264
22:00+16с816795 1.7 1011598
3 июля, вс
вс301:00+14с715825 0.0 1011444
04:00+12с513875 0.0 1012324
07:00+14с5127926 0.0 1012363
10:00+20с69565 0.0 10121016
13:00+22с71049100 0.0 10121817
16:00+22с69524 0.0 10121505
19:00+22с46610 0.1 1012872
22:00+16с338475 0.1 101341
4 июля, пн
пн401:00+15с228855 0.0 101318
04:00+14с229012 0.0 101219
07:00+16с348345 0.0 1013174
10:00+21с566745 0.0 10131055
13:00+21ссв786096 0.1 10141410
16:00+23ссв6743100 0.1 10142022
19:00+22с57525 0.0 10151005
22:00+16ссз467042 0.0 101576
5 июля, вт
вт501:00+15с3576100 0.0 101668
04:00+13ссз3379100 0.0 101634
07:00+16с23765 0.0 1017115
10:00+22ссв24525 0.0 1017904
13:00+25с474128 0.0 10172292
16:00+26ссв57393 0.0 10162555
19:00+24св46503 0.0 1017485
22:00+17вюв22625 0.0 101811
6 июля, ср
ср601:00+16ююз22626 0.0 101811
04:00+15ююз22675 0.0 101911
07:00+18юз126735 0.0 101979
10:00+23юз225393 0.0 1019518
13:00+28з124250 0.0 10181690
16:00+29сз1135100 0.0 10172564
19:00+25сз345670 0.0 1017112
22:00+21юв3462100 0.0 101859